Location: Allos
(44.2333°N, 6.6333°E)
Time: 09:50:02
(UTC+00:00)

Cosmos 1943 Rocket - Pass Details

Date: 01 December 2020
Orbit: 811 x 845 km, 71.0° (Epoch: 25 January)

Event Time Altitude Azimuth Distance (km) Brightness Sun altitude
Rises 17:53:14 0° 327° (NNW) 3,360 5.6 -20.4°
Reaches altitude 10° 17:55:48 10° 319° (NW) 2,428 5.0 -20.9°
Maximum altitude 18:00:50 36° 254° (WSW) 1,279 3.7 -21.8°
Drops below altitude 10° 18:05:54 10° 189° (S) 2,434 4.8 -22.6°
Sets 18:08:30 0° 181° (S) 3,369 5.5 -23.1°
